DW2149 Weather Reports


Display with metric or nautical units.
time (UTC)temp
F
wind
direction
speed
MPH
gust
MPH
rain 1hr
in
rain 24hr
in
rain mn
in
humidity
%
barometer
mb
20260904203721 69 218 0.0 0.0 0.00 0.00 0.00 57 1011.7
20260904203515 69 218 0.0 7.0 0.00 0.00 0.00 57 1011.7
20260904203310 69 218 0.0 7.0 0.00 0.00 0.00 57 1011.7
20260904203057 69 218 0.0 7.0 0.00 0.00 0.00 57 1011.7
20260904202849 69 218 1.0 7.0 0.00 0.00 0.00 57 1011.7
20260904202644 69 213 0.0 6.0 0.00 0.00 0.00 57 1011.7
20260904202256 69 219 0.0 5.0 0.00 0.00 0.00 57 1011.6
20260904202051 69 219 0.0 3.0 0.00 0.00 0.00 57 1011.6
20260904201838 69 219 0.0 2.0 0.00 0.00 0.00 57 1011.6
20260904201636 69 219 0.0 2.0 0.00 0.00 0.00 57 1011.6
20260904201427 69 217 0.0 1.0 0.00 0.00 0.00 57 1011.6
20260904201037 69 205 0.0 1.0 0.00 0.00 0.00 57 1011.6
20260904200830 69 205 0.0 1.0 0.00 0.00 0.00 57 1011.6
20260904200617 69 206 1.0 0.0 0.00 0.00 0.00 56 1011.5
20260904200408 69 206 1.0 7.0 0.00 0.00 0.00 57 1011.6
20260904200158 69 205 1.0 7.0 0.00 0.00 0.00 57 1011.6
20260904195954 69 207 1.0 7.0 0.00 0.00 0.00 57 1011.6
20260904195752 69 234 1.0 4.0 0.00 0.00 0.00 58 1011.6
20260904195549 69 225 0.0 4.0 0.00 0.00 0.00 57 1011.5
20260904195347 69 225 0.0 4.0 0.00 0.00 0.00 57 1011.5
20260904195139 69 225 0.0 4.0 0.00 0.00 0.00 58 1011.6
20260904194932 69 228 0.0 4.0 0.00 0.00 0.00 58 1011.6
20260904194723 69 228 0.0 2.0 0.00 0.00 0.00 58 1011.5
20260904194516 69 228 0.0 3.0 0.00 0.00 0.00 58 1011.5
20260904194125 69 228 0.0 2.0 0.00 0.00 0.00 58 1011.6
20260904193921 69 228 0.0 2.0 0.00 0.00 0.00 58 1011.6
20260904193718 69 228 0.0 0.0 0.00 0.00 0.00 58 1011.6
20260904193508 69 228 0.0 3.0 0.00 0.00 0.00 57 1011.6
20260904193302 69 228 0.0 3.0 0.00 0.00 0.00 57 1011.6
20260904193054 69 238 0.0 4.0 0.00 0.00 0.00 56 1011.6
20260904192850 69 238 0.0 4.0 0.00 0.00 0.00 57 1011.6
20260904192642 69 238 1.0 4.0 0.00 0.00 0.00 57 1011.7
20260904192435 69 238 1.0 4.0 0.00 0.00 0.00 56 1011.6
20260904192231 69 176 1.0 4.0 0.00 0.00 0.00 56 1011.7
20260904192019 69 211 1.0 7.0 0.00 0.00 0.00 56 1011.7
20260904191817 69 211 0.0 7.0 0.00 0.00 0.00 56 1011.7
20260904191608 69 225 0.0 7.0 0.00 0.00 0.00 55 1011.6
20260904191359 69 225 0.0 7.0 0.00 0.00 0.00 55 1011.7
20260904191153 70 225 0.0 5.0 0.00 0.00 0.00 55 1011.6
20260904190944 70 225 0.0 5.0 0.00 0.00 0.00 55 1011.7
20260904190732 70 225 0.0 5.0 0.00 0.00 0.00 54 1011.6
20260904190521 70 225 0.0 5.0 0.00 0.00 0.00 54 1011.7
20260904190313 70 225 0.0 5.0 0.00 0.00 0.00 53 1011.7
20260904190109 70 212 0.0 3.0 0.00 0.00 0.00 54 1011.7
20260904185901 70 192 0.0 0.0 0.00 0.00 0.00 53 1011.7
20260904185659 70 192 0.0 2.0 0.00 0.00 0.00 53 1011.7
20260904185456 70 194 0.0 2.0 0.00 0.00 0.00 54 1011.7
20260904185253 70 216 1.0 1.0 0.00 0.00 0.00 54 1011.8
20260904185051 71 216 1.0 7.0 0.00 0.00 0.00 53 1011.7
20260904184845 71 216 2.0 7.0 0.00 0.00 0.00 53 1011.8
20260904184640 71 215 2.0 7.0 0.00 0.00 0.00 52 1011.8
20260904184432 71 215 2.0 7.0 0.00 0.00 0.00 51 1011.7
20260904184228 71 215 1.0 6.0 0.00 0.00 0.00 51 1011.7
20260904184019 71 208 1.0 6.0 0.00 0.00 0.00 51 1011.7
20260904183817 71 224 1.0 6.0 0.00 0.00 0.00 51 1011.8
20260904183614 71 209 1.0 6.0 0.00 0.00 0.00 51 1011.8
20260904183221 70 213 1.0 9.0 0.00 0.00 0.00 52 1011.8
20260904183014 70 213 1.0 9.0 0.00 0.00 0.00 52 1011.7
20260904182808 69 213 1.0 9.0 0.00 0.00 0.00 52 1011.7
20260904182557 69 213 2.0 9.0 0.00 0.00 0.00 53 1011.7
20260904182206 69 222 2.0 9.0 0.00 0.00 0.00 54 1011.5
20260904181956 68 223 2.0 9.0 0.00 0.00 0.00 54 1011.6
20260904181751 68 241 1.0 9.0 0.00 0.00 0.00 54 1011.6
20260904181359 68 214 1.0 8.0 0.00 0.00 0.00 55 1011.6
20260904181147 68 209 1.0 8.0 0.00 0.00 0.00 55 1011.5
20260904180944 68 217 1.0 8.0 0.00 0.00 0.00 55 1011.6
20260904180556 68 217 2.0 8.0 0.00 0.00 0.00 55 1011.4
20260904180351 67 219 2.0 8.0 0.00 0.00 0.00 55 1011.5
20260904180139 67 210 1.0 6.0 0.00 0.00 0.00 56 1011.5
20260904175932 67 215 1.0 6.0 0.00 0.00 0.00 56 1011.5
20260904175728 67 215 1.0 6.0 0.00 0.00 0.00 56 1011.6
20260904175522 67 215 1.0 6.0 0.00 0.00 0.00 57 1011.5
20260904175125 67 214 1.0 7.0 0.00 0.00 0.00 56 1011.5
20260904174915 67 214 2.0 7.0 0.00 0.00 0.00 56 1011.6
20260904174706 66 246 1.0 7.0 0.00 0.00 0.00 57 1011.5
20260904174454 66 249 1.0 7.0 0.00 0.00 0.00 57 1011.5
20260904174248 66 209 1.0 7.0 0.00 0.00 0.00 57 1011.5
20260904174039 66 209 2.0 7.0 0.00 0.00 0.00 57 1011.5
20260904173826 66 209 2.0 7.0 0.00 0.00 0.00 57 1011.4
20260904173623 66 208 2.0 7.0 0.00 0.00 0.00 57 1011.4
20260904173417 66 208 2.0 7.0 0.00 0.00 0.00 58 1011.3
20260904173209 65 219 2.0 7.0 0.00 0.00 0.00 58 1011.3
20260904173003 65 215 2.0 7.0 0.00 0.00 0.00 58 1011.4
20260904172751 65 213 1.0 7.0 0.00 0.00 0.00 58 1011.3
20260904172356 65 236 1.0 5.0 0.00 0.00 0.00 59 1011.3
20260904172150 65 234 1.0 5.0 0.00 0.00 0.00 59 1011.3
20260904171943 65 223 1.0 5.0 0.00 0.00 0.00 59 1011.3
20260904171741 64 215 1.0 5.0 0.00 0.00 0.00 59 1011.2
20260904171537 64 215 1.0 5.0 0.00 0.00 0.00 59 1011.2
20260904171331 64 215 1.0 5.0 0.00 0.00 0.00 60 1011.2
20260904171129 64 221 1.0 4.0 0.00 0.00 0.00 60 1011.2
20260904170921 64 219 1.0 4.0 0.00 0.00 0.00 61 1011.2
20260904170534 64 207 0.0 4.0 0.00 0.00 0.00 61 1011.2
20260904170327 63 242 0.0 3.0 0.00 0.00 0.00 61 1011.1
20260904170121 63 296 0.0 3.0 0.00 0.00 0.00 61 1011.2
20260904165917 63 303 0.0 3.0 0.00 0.00 0.00 61 1011.1
20260904165712 63 219 0.0 3.0 0.00 0.00 0.00 62 1011.1
20260904165319 63 216 0.0 1.0 0.00 0.00 0.00 63 1011.2
20260904165114 62 216 0.0 1.0 0.00 0.00 0.00 63 1011.1
20260904164906 62 216 0.0 4.0 0.00 0.00 0.00 63 1011.1
20260904164655 62 216 0.0 4.0 0.00 0.00 0.00 63 1011.1
20260904164449 62 216 0.0 4.0 0.00 0.00 0.00 64 1011.1
20260904164244 61 216 0.0 4.0 0.00 0.00 0.00 64 1011.1
20260904163857 61 215 0.0 4.0 0.00 0.00 0.00 65 1011.1
20260904163644 61 215 0.0 4.0 0.00 0.00 0.00 65 1011.1
20260904163432 61 215 0.0 0.0 0.00 0.00 0.00 65 1011.1
20260904163230 61 215 0.0 3.0 0.00 0.00 0.00 65 1011.1
20260904163020 60 215 0.0 6.0 0.00 0.00 0.00 65 1011.1
20260904162816 60 215 0.0 6.0 0.00 0.00 0.00 66 1011.2
20260904162614 60 215 0.0 6.0 0.00 0.00 0.00 66 1011.1
20260904162402 60 215 0.0 6.0 0.00 0.00 0.00 66 1011.2
20260904162006 60 215 0.0 2.0 0.00 0.00 0.00 66 1011.1
20260904161754 59 215 0.0 2.0 0.00 0.00 0.00 67 1011.1
20260904161551 59 215 0.0 2.0 0.00 0.00 0.00 67 1011.1
20260904161344 59 215 0.0 2.0 0.00 0.00 0.00 67 1011.2
20260904161137 59 215 0.0 2.0 0.00 0.00 0.00 67 1011.2
20260904160932 59 215 0.0 6.0 0.00 0.00 0.00 67 1011.2
20260904160727 59 215 0.0 6.0 0.00 0.00 0.00 67 1011.3
20260904160522 59 215 0.0 4.0 0.00 0.00 0.00 68 1011.2
20260904160125 58 355 0.0 2.0 0.00 0.00 0.00 68 1011.2
20260904155920 58 321 0.0 2.0 0.00 0.00 0.00 68 1011.3
20260904155713 58 296 0.0 2.0 0.00 0.00 0.00 68 1011.3
20260904155512 58 302 0.0 0.0 0.00 0.00 0.00 68 1011.3
20260904155306 58 302 0.0 0.0 0.00 0.00 0.00 68 1011.3
20260904155051 58 302 0.0 0.0 0.00 0.00 0.00 69 1011.3
20260904154845 58 302 0.0 1.0 0.00 0.00 0.00 68 1011.2
20260904154642 58 302 0.0 2.0 0.00 0.00 0.00 69 1011.2
20260904154430 58 302 0.0 2.0 0.00 0.00 0.00 69 1011.3
20260904154228 58 304 0.0 0.0 0.00 0.00 0.00 70 1011.2
20260904154021 58 304 0.0 0.0 0.00 0.00 0.00 70 1011.2
20260904153814 57 304 0.0 1.0 0.00 0.00 0.00 70 1011.2
20260904153610 57 305 0.0 0.0 0.00 0.00 0.00 70 1011.2
20260904153402 57 305 0.0 0.0 0.00 0.00 0.00 70 1011.3
20260904153152 57 305 0.0 0.0 0.00 0.00 0.00 70 1011.2
20260904152804 57 305 0.0 0.0 0.00 0.00 0.00 70 1011.2
20260904152559 57 305 0.0 0.0 0.00 0.00 0.00 70 1011.2
20260904152351 57 305 0.0 2.0 0.00 0.00 0.00 71 1011.3
20260904152138 57 305 0.0 1.0 0.00 0.00 0.00 71 1011.3
20260904151742 57 305 0.0 0.0 0.00 0.00 0.00 71 1011.3
20260904151353 56 305 0.0 0.0 0.00 0.00 0.00 72 1011.3
20260904150957 56 305 0.0 0.0 0.00 0.00 0.00 72 1011.3
20260904150743 56 305 0.0 0.0 0.00 0.00 0.00 72 1011.3
20260904150541 56 305 0.0 0.0 0.00 0.00 0.00 72 1011.3
20260904150326 56 305 0.0 0.0 0.00 0.00 0.00 72 1011.3
20260904150112 56 305 0.0 0.0 0.00 0.00 0.00 72 1011.3
20260904145901 56 305 0.0 0.0 0.00 0.00 0.00 72 1011.3
20260904145654 56 305 0.0 0.0 0.00 0.00 0.00 72 1011.3
20260904145447 56 305 0.0 0.0 0.00 0.00 0.00 72 1011.3
20260904145241 56 305 0.0 0.0 0.00 0.00 0.00 72 1011.3
20260904145035 56 305 0.0 0.0 0.00 0.00 0.00 72 1011.4
20260904144824 55 305 0.0 0.0 0.00 0.00 0.00 72 1011.2
20260904144611 55 305 0.0 0.0 0.00 0.00 0.00 72 1011.3
20260904144404 55 305 0.0 0.0 0.00 0.00 0.00 71 1011.3
20260904144016 55 305 0.0 0.0 0.00 0.00 0.00 71 1011.2
20260904143802 55 305 0.0 0.0 0.00 0.00 0.00 71 1011.2
20260904143550 55 305 0.0 0.0 0.00 0.00 0.00 71 1011.1
20260904143344 55 305 0.0 0.0 0.00 0.00 0.00 71 1011.2
20260904142951 55 305 0.0 0.0 0.00 0.00 0.00 71 1011.2
20260904142744 55 305 0.0 0.0 0.00 0.00 0.00 71 1011.1
20260904142357 55 305 0.0 0.0 0.00 0.00 0.00 70 1011.1
20260904141818 55 305 0.0 0.0 0.00 0.00 0.00 70 1011.2
20260904141609 55 305 0.0 0.0 0.00 0.00 0.00 70 1011.2
20260904141355 55 305 0.0 0.0 0.00 0.00 0.00 70 1011.2
20260904141150 55 305 0.0 0.0 0.00 0.00 0.00 70 1011.2
20260904140938 55 305 0.0 0.0 0.00 0.00 0.00 70 1011.1
20260904140729 55 305 0.0 0.0 0.00 0.00 0.00 70 1011.1
20260904140334 55 305 0.0 0.0 0.00 0.00 0.00 70 1011.1
20260904140122 55 305 0.0 0.0 0.00 0.00 0.00 70 1011.0
20260904135913 55 305 0.0 0.0 0.00 0.00 0.00 70 1011.0
20260904135707 55 305 0.0 0.0 0.00 0.00 0.00 70 1011.0
20260904135504 55 305 0.0 0.0 0.00 0.00 0.00 70 1011.0
20260904135256 55 305 0.0 0.0 0.00 0.00 0.00 70 1011.0
20260904135049 55 305 0.0 0.0 0.00 0.00 0.00 70 1011.0
20260904134839 55 305 0.0 0.0 0.00 0.00 0.00 70 1011.0
20260904134633 55 305 0.0 0.0 0.00 0.00 0.00 70 1010.9
20260904134429 55 305 0.0 0.0 0.00 0.00 0.00 70 1010.9
20260904134220 55 305 0.0 0.0 0.00 0.00 0.00 70 1010.9
20260904134016 55 305 0.0 0.0 0.00 0.00 0.00 70 1010.8
20260904133805 55 305 0.0 0.0 0.00 0.00 0.00 70 1010.8
20260904133559 55 305 0.0 0.0 0.00 0.00 0.00 70 1010.7
20260904133356 55 305 0.0 0.0 0.00 0.00 0.00 70 1010.7
20260904133149 55 305 0.0 0.0 0.00 0.00 0.00 70 1010.7
20260904132947 55 305 0.0 0.0 0.00 0.00 0.00 70 1010.7
20260904132738 55 305 0.0 0.0 0.00 0.00 0.00 70 1010.7
20260904132525 55 305 0.0 0.0 0.00 0.00 0.00 70 1010.7
20260904132314 55 305 0.0 0.0 0.00 0.00 0.00 70 1010.7
20260904131547 55 305 0.0 0.0 0.00 0.00 0.00 70 1010.7
20260904131335 55 305 0.0 0.0 0.00 0.00 0.00 70 1010.6
20260904131127 55 305 0.0 0.0 0.00 0.00 0.00 70 1010.7
20260904130923 55 305 0.0 0.0 0.00 0.00 0.00 70 1010.6
20260904130710 55 305 0.0 0.0 0.00 0.00 0.00 70 1010.6
20260904130505 55 305 0.0 0.0 0.00 0.00 0.00 70 1010.5
20260904130303 55 305 0.0 0.0 0.00 0.00 0.00 70 1010.6
20260904125914 55 305 0.0 0.0 0.00 0.00 0.00 70 1010.6
20260904125710 55 305 0.0 0.0 0.00 0.00 0.00 70 1010.5
20260904125508 55 305 0.0 0.0 0.00 0.00 0.00 70 1010.5
20260904125305 55 305 0.0 0.0 0.00 0.00 0.00 70 1010.5
20260904125055 55 305 0.0 0.0 0.00 0.00 0.00 70 1010.5
20260904124845 55 305 0.0 0.0 0.00 0.00 0.00 70 1010.4
20260904124636 55 305 0.0 0.0 0.00 0.00 0.00 70 1010.5
20260904124434 55 305 0.0 0.0 0.00 0.00 0.00 70 1010.4
20260904124232 55 305 0.0 0.0 0.00 0.00 0.00 70 1010.5
20260904124021 55 305 0.0 0.0 0.00 0.00 0.00 70 1010.4
20260904123817 55 305 0.0 0.0 0.00 0.00 0.00 70 1010.4
20260904123605 55 305 0.0 0.0 0.00 0.00 0.00 70 1010.4
20260904123400 55 305 0.0 0.0 0.00 0.00 0.00 70 1010.4
20260904123151 55 305 0.0 0.0 0.00 0.00 0.00 70 1010.4
20260904122944 55 305 0.0 0.0 0.00 0.00 0.00 70 1010.5
20260904122733 55 305 0.0 0.0 0.00 0.00 0.00 70 1010.4
20260904122528 55 305 0.0 0.0 0.00 0.00 0.00 70 1010.4
20260904122324 55 305 0.0 0.0 0.00 0.00 0.00 70 1010.4
20260904122122 55 305 0.0 0.0 0.00 0.00 0.00 70 1010.3
20260904121909 55 305 0.0 0.0 0.00 0.00 0.00 70 1010.4
20260904121703 55 305 0.0 0.0 0.00 0.00 0.00 70 1010.4
20260904121459 54 305 0.0 0.0 0.00 0.00 0.00 70 1010.4
20260904121251 54 305 0.0 0.0 0.00 0.00 0.00 70 1010.4
20260904121038 54 305 0.0 0.0 0.00 0.00 0.00 70 1010.4
20260904120647 54 305 0.0 0.0 0.00 0.00 0.00 70 1010.4
20260904120437 54 305 0.0 0.0 0.00 0.00 0.00 70 1010.4
20260904120226 54 305 0.0 0.0 0.00 0.00 0.00 70 1010.4
20260904115835 54 305 0.0 0.0 0.00 0.00 0.00 70 1010.4
20260904115632 54 305 0.0 0.0 0.00 0.00 0.00 70 1010.4
20260904115427 54 305 0.0 0.0 0.00 0.00 0.00 70 1010.5
20260904115221 54 305 0.0 0.0 0.00 0.00 0.00 70 1010.5
20260904115008 54 305 0.0 0.0 0.00 0.00 0.00 70 1010.5
20260904114803 54 305 0.0 0.0 0.00 0.00 0.00 70 1010.6
20260904114554 54 305 0.0 0.0 0.00 0.00 0.00 70 1010.6
20260904114344 54 305 0.0 0.0 0.00 0.00 0.00 70 1010.6
20260904114141 54 305 0.0 0.0 0.00 0.00 0.00 70 1010.6
20260904113937 54 305 0.0 0.0 0.00 0.00 0.00 70 1010.5
20260904113727 54 305 0.0 0.0 0.00 0.00 0.00 70 1010.5
20260904113330 54 305 0.0 0.0 0.00 0.00 0.00 70 1010.5
20260904113120 54 305 0.0 0.0 0.00 0.00 0.00 70 1010.5
20260904112732 54 305 0.0 0.0 0.00 0.00 0.00 70 1010.5
20260904112522 54 305 0.0 0.0 0.00 0.00 0.00 70 1010.4
20260904112320 54 305 0.0 0.0 0.00 0.00 0.00 70 1010.4
20260904112117 54 305 0.0 0.0 0.00 0.00 0.00 70 1010.4
20260904111915 54 305 0.0 0.0 0.00 0.00 0.00 70 1010.4
20260904111704 54 305 0.0 0.0 0.00 0.00 0.00 70 1010.5
20260904111453 53 305 0.0 0.0 0.00 0.00 0.00 70 1010.5
20260904111241 53 305 0.0 0.0 0.00 0.00 0.00 70 1010.5
20260904111035 53 305 0.0 0.0 0.00 0.00 0.00 70 1010.5
20260904110832 53 305 0.0 0.0 0.00 0.00 0.00 70 1010.5
20260904110442 53 305 0.0 0.0 0.00 0.00 0.00 70 1010.5
20260904110052 53 305 0.0 0.0 0.00 0.00 0.00 70 1010.4
20260904105700 53 305 0.0 0.0 0.00 0.00 0.00 70 1010.5
20260904105449 53 305 0.0 0.0 0.00 0.00 0.00 70 1010.5
20260904105244 53 305 0.0 0.0 0.00 0.00 0.00 70 1010.5
20260904105032 53 305 0.0 0.0 0.00 0.00 0.00 70 1010.5
20260904104821 53 305 0.0 0.0 0.00 0.00 0.00 70 1010.4
20260904104616 53 305 0.0 0.0 0.00 0.00 0.00 69 1010.4
20260904104414 53 305 0.0 0.0 0.00 0.00 0.00 69 1010.4
20260904104202 53 305 0.0 0.0 0.00 0.00 0.00 69 1010.4
20260904103811 53 305 0.0 0.0 0.00 0.00 0.00 69 1010.3
20260904103609 53 305 0.0 0.0 0.00 0.00 0.00 69 1010.3
20260904103400 53 305 0.0 0.0 0.00 0.00 0.00 69 1010.3
20260904103149 53 305 0.0 0.0 0.00 0.00 0.00 69 1010.3
20260904102937 53 305 0.0 0.0 0.00 0.00 0.00 69 1010.4
20260904102736 53 305 0.0 0.0 0.00 0.00 0.00 69 1010.3
20260904102534 53 305 0.0 0.0 0.00 0.00 0.00 69 1010.3
20260904102328 53 305 0.0 0.0 0.00 0.00 0.00 69 1010.3
20260904102126 53 305 0.0 0.0 0.00 0.00 0.00 69 1010.3
20260904101728 53 305 0.0 0.0 0.00 0.00 0.00 69 1010.3
20260904101336 53 305 0.0 0.0 0.00 0.00 0.00 69 1010.4
20260904101133 53 305 0.0 0.0 0.00 0.00 0.00 69 1010.3
20260904100925 53 305 0.0 0.0 0.00 0.00 0.00 69 1010.3
20260904100721 53 305 0.0 0.0 0.00 0.00 0.00 69 1010.3
20260904100143 53 305 0.0 0.0 0.00 0.00 0.00 69 1010.3
20260904095751 53 305 0.0 0.0 0.00 0.00 0.00 69 1010.3
20260904095537 53 305 0.0 0.0 0.00 0.00 0.00 68 1010.3
20260904095331 53 305 0.0 0.0 0.00 0.00 0.00 68 1010.4
20260904095122 53 305 0.0 0.0 0.00 0.00 0.00 68 1010.4
20260904094916 53 305 0.0 0.0 0.00 0.00 0.00 68 1010.4
20260904094709 53 305 0.0 0.0 0.00 0.00 0.00 68 1010.4
20260904094500 53 305 0.0 0.0 0.00 0.00 0.00 68 1010.4
20260904094251 53 305 0.0 0.0 0.00 0.00 0.00 68 1010.4
20260904094044 53 305 0.0 0.0 0.00 0.00 0.00 68 1010.4
20260904093833 53 305 0.0 0.0 0.00 0.00 0.00 68 1010.4
20260904093630 53 305 0.0 0.0 0.00 0.00 0.00 68 1010.4
20260904093238 53 305 0.0 0.0 0.00 0.00 0.00 68 1010.4
20260904092845 53 305 0.0 0.0 0.00 0.00 0.00 68 1010.4
20260904092636 53 305 0.0 0.0 0.00 0.00 0.00 67 1010.4
20260904092425 53 305 0.0 0.0 0.00 0.00 0.00 67 1010.4
20260904092218 53 305 0.0 0.0 0.00 0.00 0.00 67 1010.4
20260904092014 53 305 0.0 0.0 0.00 0.00 0.00 67 1010.4
20260904091801 53 305 0.0 0.0 0.00 0.00 0.00 67 1010.4
20260904091414 53 305 0.0 0.0 0.00 0.00 0.00 67 1010.4
20260904091210 53 305 0.0 0.0 0.00 0.00 0.00 67 1010.4
20260904091000 53 305 0.0 0.0 0.00 0.00 0.00 67 1010.4
20260904090751 53 305 0.0 0.0 0.00 0.00 0.00 67 1010.4
20260904090548 53 305 0.0 0.0 0.00 0.00 0.00 66 1010.4
20260904090343 53 305 0.0 0.0 0.00 0.00 0.00 67 1010.5
20260904090140 53 305 0.0 0.0 0.00 0.00 0.00 66 1010.5
20260904085937 53 305 0.0 0.0 0.00 0.00 0.00 67 1010.6
20260904085726 53 305 0.0 0.0 0.00 0.00 0.00 66 1010.5
20260904085516 53 305 0.0 0.0 0.00 0.00 0.00 66 1010.5
20260904085313 53 305 0.0 0.0 0.00 0.00 0.00 66 1010.5
20260904085108 53 305 0.0 0.0 0.00 0.00 0.00 66 1010.6
20260904084902 53 305 0.0 0.0 0.00 0.00 0.00 66 1010.6
20260904084650 53 305 0.0 0.0 0.00 0.00 0.00 66 1010.6
20260904084303 53 305 0.0 0.0 0.00 0.00 0.00 66 1010.6
20260904084059 53 305 0.0 0.0 0.00 0.00 0.00 66 1010.6
20260904083852 53 305 0.0 0.0 0.00 0.00 0.00 66 1010.6
20260904083646 53 305 0.0 0.0 0.00 0.00 0.00 66 1010.6
20260904083433 53 305 0.0 0.0 0.00 0.00 0.00 66 1010.6
20260904083229 53 305 0.0 0.0 0.00 0.00 0.00 66 1010.6
20260904083024 53 305 0.0 0.0 0.00 0.00 0.00 66 1010.6
20260904082814 53 305 0.0 0.0 0.00 0.00 0.00 66 1010.6
20260904082426 53 305 0.0 0.0 0.00 0.00 0.00 66 1010.6
20260904082218 53 305 0.0 0.0 0.00 0.00 0.00 66 1010.6
20260904082006 54 305 0.0 0.0 0.00 0.00 0.00 66 1010.6
20260904081753 54 305 0.0 0.0 0.00 0.00 0.00 66 1010.6
20260904081550 54 305 0.0 0.0 0.00 0.00 0.00 66 1010.6
20260904081338 54 305 0.0 0.0 0.00 0.00 0.00 66 1010.6
20260904081134 54 305 0.0 0.0 0.00 0.00 0.00 66 1010.5
20260904080928 54 305 0.0 0.0 0.00 0.00 0.00 66 1010.6
20260904080720 54 305 0.0 0.0 0.00 0.00 0.00 66 1010.6
20260904080508 54 305 0.0 0.0 0.00 0.00 0.00 66 1010.6
20260904080257 54 305 0.0 0.0 0.00 0.00 0.00 66 1010.6
20260904080053 54 305 0.0 0.0 0.00 0.00 0.00 66 1010.6
20260904075841 54 305 0.0 0.0 0.00 0.00 0.00 66 1010.6
20260904075629 54 305 0.0 0.0 0.00 0.00 0.00 66 1010.6
20260904075418 54 305 0.0 0.0 0.00 0.00 0.00 66 1010.6
20260904075213 54 305 0.0 0.0 0.00 0.00 0.00 66 1010.6
20260904074450 54 305 0.0 0.0 0.00 0.00 0.00 66 1010.6
20260904074240 54 305 0.0 0.0 0.00 0.00 0.00 66 1010.6
20260904074037 54 305 0.0 0.0 0.00 0.00 0.00 66 1010.6
20260904073827 54 305 0.0 0.0 0.00 0.00 0.00 66 1010.7
20260904073615 54 305 0.0 0.0 0.00 0.00 0.00 66 1010.7
20260904073414 54 305 0.0 0.0 0.00 0.00 0.00 66 1010.6
20260904073208 54 305 0.0 0.0 0.00 0.00 0.00 66 1010.6
20260904072957 54 305 0.0 0.0 0.00 0.00 0.00 66 1010.6
20260904072750 54 305 0.0 0.0 0.00 0.00 0.00 66 1010.6
20260904072542 54 305 0.0 0.0 0.00 0.00 0.00 66 1010.6
20260904072333 54 305 0.0 0.0 0.00 0.00 0.00 66 1010.6
20260904071944 54 305 0.0 0.0 0.00 0.00 0.00 66 1010.6
20260904071742 54 305 0.0 0.0 0.00 0.00 0.00 65 1010.7
20260904071535 54 305 0.0 0.0 0.00 0.00 0.00 66 1010.6
20260904071323 54 305 0.0 0.0 0.00 0.00 0.00 66 1010.6
20260904071110 55 305 0.0 0.0 0.00 0.00 0.00 65 1010.6
20260904070903 55 305 0.0 0.0 0.00 0.00 0.00 65 1010.6
20260904070654 55 305 0.0 0.0 0.00 0.00 0.00 65 1010.6
20260904070256 55 305 0.0 0.0 0.00 0.00 0.00 65 1010.5
20260904070049 55 305 0.0 0.0 0.00 0.00 0.00 65 1010.6
20260904065842 55 305 0.0 0.0 0.00 0.00 0.00 65 1010.6
20260904065443 55 305 0.0 0.0 0.00 0.00 0.00 65 1010.6
20260904065236 55 305 0.0 0.0 0.00 0.00 0.00 64 1010.5
20260904065031 55 305 0.0 0.0 0.00 0.00 0.00 64 1010.6
20260904064821 55 305 0.0 0.0 0.00 0.00 0.00 64 1010.6
20260904064426 55 305 0.0 0.0 0.00 0.00 0.00 64 1010.6
20260904064211 55 305 0.0 0.0 0.00 0.00 0.00 64 1010.6
20260904064000 55 305 0.0 0.0 0.00 0.00 0.00 64 1010.7
20260904063747 55 305 0.0 0.0 0.00 0.00 0.00 64 1010.6
20260904063532 55 305 0.0 0.0 0.00 0.00 0.00 64 1010.6
20260904063324 55 305 0.0 0.0 0.00 0.00 0.00 64 1010.6
20260904063120 55 305 0.0 0.0 0.00 0.00 0.00 64 1010.6
20260904062909 55 305 0.0 0.0 0.00 0.00 0.00 64 1010.6
20260904062701 55 305 0.0 0.0 0.00 0.00 0.00 64 1010.6
20260904062309 56 305 0.0 0.0 0.00 0.00 0.00 64 1010.6
20260904062107 56 305 0.0 0.0 0.00 0.00 0.00 63 1010.6
20260904061854 56 305 0.0 0.0 0.00 0.00 0.00 63 1010.6
20260904061649 56 305 0.0 0.0 0.00 0.00 0.00 63 1010.6
20260904061300 56 305 0.0 0.0 0.00 0.00 0.00 63 1010.5
20260904060717 56 305 0.0 0.0 0.00 0.00 0.00 63 1010.5
20260904060507 56 305 0.0 0.0 0.00 0.00 0.00 63 1010.4
20260904060255 56 305 0.0 0.0 0.00 0.00 0.00 63 1010.4
20260904060053 56 305 0.0 0.0 0.00 0.00 0.00 63 1010.3
20260904055841 56 305 0.0 0.0 0.00 0.00 0.00 63 1010.4
20260904055639 56 305 0.0 0.0 0.00 0.00 0.00 62 1010.4
20260904055248 56 305 0.0 0.0 0.00 0.00 0.00 62 1010.4
20260904055047 57 305 0.0 0.0 0.00 0.00 0.00 62 1010.4
20260904054843 57 305 0.0 0.0 0.00 0.00 0.00 62 1010.4
20260904054633 57 305 0.0 0.0 0.00 0.00 0.00 62 1010.4
20260904054421 57 305 0.0 0.0 0.00 0.00 0.00 62 1010.4
20260904054214 57 305 0.0 0.0 0.00 0.00 0.00 62 1010.4
20260904054009 57 305 0.0 0.0 0.00 0.00 0.00 62 1010.4
20260904053803 57 305 0.0 0.0 0.00 0.00 0.00 62 1010.4
20260904053558 57 305 0.0 0.0 0.00 0.00 0.00 62 1010.4
20260904053349 57 305 0.0 0.0 0.00 0.00 0.00 62 1010.4
20260904052958 57 305 0.0 0.0 0.00 0.00 0.00 61 1010.4
20260904052756 57 305 0.0 0.0 0.00 0.00 0.00 61 1010.5
20260904052554 57 305 0.0 0.0 0.00 0.00 0.00 61 1010.5
20260904052341 57 305 0.0 0.0 0.00 0.00 0.00 61 1010.5
20260904052134 57 305 0.0 0.0 0.00 0.00 0.00 61 1010.5
20260904051923 58 305 0.0 0.0 0.00 0.00 0.00 61 1010.6
20260904051712 58 305 0.0 0.0 0.00 0.00 0.00 61 1010.6
20260904051459 58 305 0.0 0.0 0.00 0.00 0.00 61 1010.6
20260904051249 58 305 0.0 0.0 0.00 0.00 0.00 60 1010.6
20260904051039 58 305 0.0 0.0 0.00 0.00 0.00 60 1010.7
20260904050651 58 305 0.0 0.0 0.00 0.00 0.00 60 1010.6
20260904050447 58 305 0.0 0.0 0.00 0.00 0.00 60 1010.6
20260904050245 58 305 0.0 0.0 0.00 0.00 0.00 60 1010.6
20260904050033 58 305 0.0 0.0 0.00 0.00 0.00 60 1010.7
20260904045821 58 305 0.0 0.0 0.00 0.00 0.00 60 1010.6
20260904045434 58 305 0.0 0.0 0.00 0.00 0.00 60 1010.6
20260904045224 59 305 0.0 0.0 0.00 0.00 0.00 59 1010.7
20260904045015 59 305 0.0 0.0 0.00 0.00 0.00 59 1010.7
20260904044621 59 305 0.0 0.0 0.00 0.00 0.00 59 1010.6
20260904044408 59 305 0.0 0.0 0.00 0.00 0.00 59 1010.7
20260904044202 59 305 0.0 0.0 0.00 0.00 0.00 59 1010.6
20260904043951 59 305 0.0 0.0 0.00 0.00 0.00 59 1010.7
20260904043740 59 305 0.0 0.0 0.00 0.00 0.00 58 1010.7
20260904043529 59 305 0.0 0.0 0.00 0.00 0.00 58 1010.7
20260904043318 59 305 0.0 0.0 0.00 0.00 0.00 58 1010.7
20260904043106 59 305 0.0 0.0 0.00 0.00 0.00 58 1010.7
20260904042859 60 305 0.0 0.0 0.00 0.00 0.00 58 1010.7
20260904042657 60 305 0.0 0.0 0.00 0.00 0.00 58 1010.7
20260904042453 60 305 0.0 0.0 0.00 0.00 0.00 58 1010.7
20260904042248 60 305 0.0 0.0 0.00 0.00 0.00 58 1010.7
20260904042037 60 305 0.0 0.0 0.00 0.00 0.00 57 1010.7
20260904041826 60 305 0.0 0.0 0.00 0.00 0.00 57 1010.7
20260904041619 60 305 0.0 0.0 0.00 0.00 0.00 57 1010.7
20260904041416 60 305 0.0 0.0 0.00 0.00 0.00 57 1010.7
20260904041203 60 305 0.0 0.0 0.00 0.00 0.00 57 1010.6
20260904040811 61 305 0.0 0.0 0.00 0.00 0.00 56 1010.6
20260904040600 61 305 0.0 0.0 0.00 0.00 0.00 56 1010.6
20260904040350 61 305 0.0 0.0 0.00 0.00 0.00 56 1010.6
20260904035956 61 305 0.0 0.0 0.00 0.00 0.00 56 1010.5
20260904035748 61 305 0.0 0.0 0.00 0.00 0.00 56 1010.5
20260904035544 61 305 0.0 0.0 0.00 0.00 0.00 55 1010.5
20260904035335 61 305 0.0 0.0 0.00 0.00 0.00 55 1010.5
20260904035125 62 305 0.0 0.0 0.00 0.00 0.00 55 1010.5
20260904034916 62 305 0.0 0.0 0.00 0.00 0.00 54 1010.5
20260904034709 62 305 0.0 0.0 0.00 0.00 0.00 54 1010.5
20260904034319 62 305 0.0 0.0 0.00 0.00 0.00 54 1010.5
20260904034114 62 305 0.0 0.0 0.00 0.00 0.00 54 1010.4
20260904033722 63 305 0.0 0.0 0.00 0.00 0.00 53 1010.4
20260904033510 63 305 0.0 0.0 0.00 0.00 0.00 53 1010.4
20260904033300 63 305 0.0 0.0 0.00 0.00 0.00 53 1010.3
20260904033054 63 305 0.0 0.0 0.00 0.00 0.00 53 1010.3
20260904032706 64 305 0.0 0.0 0.00 0.00 0.00 52 1010.3
20260904032505 64 305 0.0 0.0 0.00 0.00 0.00 52 1010.3
20260904032257 64 305 0.0 0.0 0.00 0.00 0.00 52 1010.2
20260904031909 64 305 0.0 0.0 0.00 0.00 0.00 52 1010.3
20260904031701 64 305 0.0 0.0 0.00 0.00 0.00 51 1010.2
20260904031457 65 305 0.0 0.0 0.00 0.00 0.00 51 1010.2
20260904031107 65 305 0.0 0.0 0.00 0.00 0.00 51 1010.2
20260904030902 65 305 0.0 0.0 0.00 0.00 0.00 51 1010.2
20260904030656 65 305 0.0 0.0 0.00 0.00 0.00 50 1010.2
20260904030452 66 305 0.0 0.0 0.00 0.00 0.00 50 1010.2
20260904030242 66 305 0.0 0.0 0.00 0.00 0.00 50 1010.1
20260904030031 66 305 0.0 0.0 0.00 0.00 0.00 50 1010.1
20260904025826 66 305 0.0 0.0 0.00 0.00 0.00 50 1010.2
20260904025432 66 305 0.0 0.0 0.00 0.00 0.00 49 1010.1
20260904025225 67 305 0.0 0.0 0.00 0.00 0.00 49 1010.1
20260904025023 67 305 0.0 0.0 0.00 0.00 0.00 49 1010.2
20260904024820 67 305 0.0 0.0 0.00 0.00 0.00 49 1010.2
20260904024619 67 305 0.0 0.0 0.00 0.00 0.00 48 1010.3
20260904024418 67 305 0.0 0.0 0.00 0.00 0.00 49 1010.2
20260904024209 67 305 0.0 0.0 0.00 0.00 0.00 48 1010.2
20260904024005 68 305 0.0 0.0 0.00 0.00 0.00 48 1010.3
20260904023803 68 305 0.0 0.0 0.00 0.00 0.00 48 1010.2
20260904023554 68 305 0.0 0.0 0.00 0.00 0.00 48 1010.2
20260904023343 68 305 0.0 0.0 0.00 0.00 0.00 48 1010.2
20260904023134 68 305 0.0 0.0 0.00 0.00 0.00 48 1010.2
20260904022746 69 305 0.0 0.0 0.00 0.00 0.00 48 1010.2
20260904022534 69 305 0.0 0.0 0.00 0.00 0.00 48 1010.2
20260904022329 69 305 0.0 0.0 0.00 0.00 0.00 48 1010.2
20260904022120 69 305 0.0 0.0 0.00 0.00 0.00 47 1010.1
20260904021907 69 305 0.0 0.0 0.00 0.00 0.00 47 1010.2
20260904021659 69 305 0.0 0.0 0.00 0.00 0.00 47 1010.2
20260904021452 69 305 0.0 0.0 0.00 0.00 0.00 47 1010.1
20260904020911 70 305 0.0 0.0 0.00 0.00 0.00 47 1010.2
20260904020704 70 305 0.0 0.0 0.00 0.00 0.00 47 1010.1
20260904020452 70 305 0.0 0.0 0.00 0.00 0.00 47 1010.1
20260904020244 70 305 0.0 0.0 0.00 0.00 0.00 47 1010.2
20260904020031 70 305 0.0 0.0 0.00 0.00 0.00 47 1010.2
20260904015822 70 305 0.0 0.0 0.00 0.00 0.00 46 1010.1
20260904015618 70 305 0.0 0.0 0.00 0.00 0.00 46 1010.3
20260904015414 70 305 0.0 0.0 0.00 0.00 0.00 45 1010.3
20260904015207 70 305 0.0 0.0 0.00 0.00 0.00 45 1010.3
20260904015001 71 305 0.0 0.0 0.00 0.00 0.00 45 1010.3
20260904014607 71 305 0.0 1.0 0.00 0.00 0.00 45 1010.3
20260904014400 71 305 0.0 0.0 0.00 0.00 0.00 45 1010.3
20260904014147 71 305 0.0 0.0 0.00 0.00 0.00 45 1010.3
20260904013944 71 305 0.0 0.0 0.00 0.00 0.00 44 1010.3
20260904013739 71 305 0.0 1.0 0.00 0.00 0.00 45 1010.3
20260904013530 71 305 0.0 0.0 0.00 0.00 0.00 44 1010.3
20260904013327 71 305 0.0 0.0 0.00 0.00 0.00 43 1010.3
20260904013116 72 304 0.0 3.0 0.00 0.00 0.00 44 1010.3
20260904012906 72 303 0.0 1.0 0.00 0.00 0.00 43 1010.3
20260904012656 72 303 0.0 2.0 0.00 0.00 0.00 43 1010.3
20260904012453 72 304 0.0 2.0 0.00 0.00 0.00 43 1010.2
20260904012241 72 241 0.0 2.0 0.00 0.00 0.00 44 1010.3
20260904012035 72 240 0.0 0.0 0.00 0.00 0.00 44 1010.4
20260904011826 72 240 0.0 1.0 0.00 0.00 0.00 43 1010.4
20260904011617 72 256 0.0 0.0 0.00 0.00 0.00 43 1010.3
20260904011414 72 256 0.0 5.0 0.00 0.00 0.00 43 1010.3
20260904011207 72 238 0.0 3.0 0.00 0.00 0.00 43 1010.4
20260904010811 73 237 0.0 1.0 0.00 0.00 0.00 43 1010.4
20260904010601 73 237 0.0 2.0 0.00 0.00 0.00 42 1010.2
20260904010356 73 153 0.0 0.0 0.00 0.00 0.00 43 1010.2
20260904010143 73 153 0.0 2.0 0.00 0.00 0.00 42 1010.2
20260904005937 73 280 0.0 1.0 0.00 0.00 0.00 42 1010.2
20260904005544 73 280 0.0 3.0 0.00 0.00 0.00 41 1010.2
20260904005339 73 277 0.0 3.0 0.00 0.00 0.00 42 1010.3
20260904004949 74 273 0.0 3.0 0.00 0.00 0.00 41 1010.3
20260904004746 74 279 0.0 3.0 0.00 0.00 0.00 41 1010.2
20260904004541 74 215 0.0 2.0 0.00 0.00 0.00 41 1010.2
20260904004333 74 215 0.0 2.0 0.00 0.00 0.00 42 1010.2
20260904004126 74 215 0.0 5.0 0.00 0.00 0.00 41 1010.2
20260904003914 74 213 1.0 5.0 0.00 0.00 0.00 41 1010.2
20260904003707 74 198 1.0 5.0 0.00 0.00 0.00 41 1010.2
20260904003455 74 147 1.0 5.0 0.00 0.00 0.00 41 1010.2
20260904003252 75 216 1.0 5.0 0.00 0.00 0.00 41 1010.2
20260904003050 75 242 1.0 5.0 0.00 0.00 0.00 40 1010.3
20260904002844 75 216 1.0 5.0 0.00 0.00 0.00 41 1010.2
20260904002633 75 232 1.0 5.0 0.00 0.00 0.00 41 1010.2
20260904002422 74 340 1.0 6.0 0.00 0.00 0.00 40 1010.2
20260904002213 74 344 1.0 6.0 0.00 0.00 0.00 41 1010.2
20260904002007 74 268 0.0 6.0 0.00 0.00 0.00 41 1010.3
20260904001801 74 233 1.0 6.0 0.00 0.00 0.00 40 1010.3
20260904001559 74 233 0.0 6.0 0.00 0.00 0.00 40 1010.2
20260904001358 75 155 1.0 6.0 0.00 0.00 0.00 41 1010.2
20260904001002 75 306 1.0 6.0 0.00 0.00 0.00 41 1010.3
20260904000757 75 219 0.0 6.0 0.00 0.00 0.00 39 1010.3
20260904000545 75 281 0.0 6.0 0.00 0.00 0.00 39 1010.4
20260904000333 75 306 0.0 4.0 0.00 0.00 0.00 39 1010.3
20260904000122 76 214 0.0 0.0 0.00 0.00 0.00 40 1010.4
20260903235918 76 214 0.0 7.0 0.00 0.00 0.00 39 1010.4
20260903235711 76 214 0.0 7.0 0.00 0.00 0.00 39 1010.5
20260903235507 76 215 0.0 7.0 0.00 0.00 0.00 39 1010.5
20260903235300 76 223 0.0 7.0 0.00 0.00 0.00 38 1010.4
20260903235048 76 278 1.0 6.0 0.00 0.00 0.00 40 1010.5
20260903234846 76 278 1.0 6.0 0.00 0.00 0.00 39 1010.5
20260903234640 76 228 1.0 6.0 0.00 0.00 0.00 39 1010.5
20260903234433 75 217 0.0 6.0 0.00 0.00 0.00 39 1010.4
20260903234226 76 148 0.0 6.0 0.00 0.00 0.00 39 1010.4
20260903233837 76 211 0.0 3.0 0.00 0.00 0.00 40 1010.4
20260903233625 76 213 0.0 0.0 0.00 0.00 0.00 39 1010.4
20260903233423 76 213 0.0 7.0 0.00 0.00 0.00 40 1010.4
20260903233212 76 213 0.0 7.0 0.00 0.00 0.00 38 1010.5
20260903233010 77 329 1.0 7.0 0.00 0.00 0.00 39 1010.4
20260903232804 77 251 1.0 6.0 0.00 0.00 0.00 38 1010.5
20260903232555 77 264 1.0 6.0 0.00 0.00 0.00 38 1010.6
20260903232349 77 294 1.0 6.0 0.00 0.00 0.00 39 1010.6
20260903232146 77 225 1.0 6.0 0.00 0.00 0.00 38 1010.6
20260903231937 78 267 0.0 6.0 0.00 0.00 0.00 37 1010.5
20260903231732 78 216 0.0 6.0 0.00 0.00 0.00 38 1010.5
20260903231523 78 227 0.0 5.0 0.00 0.00 0.00 38 1010.5
20260903231313 77 227 0.0 5.0 0.00 0.00 0.00 39 1010.5
20260903231107 77 157 0.0 5.0 0.00 0.00 0.00 39 1010.6
20260903230902 77 283 0.0 5.0 0.00 0.00 0.00 38 1010.7
20260903230659 76 231 0.0 5.0 0.00 0.00 0.00 39 1010.7
20260903230450 76 284 0.0 5.0 0.00 0.00 0.00 39 1010.7
20260903230055 76 284 0.0 5.0 0.00 0.00 0.00 39 1010.7
20260903225843 76 286 1.0 5.0 0.00 0.00 0.00 38 1010.8
20260903225637 76 197 1.0 6.0 0.00 0.00 0.00 38 1010.8
20260903225430 76 210 1.0 6.0 0.00 0.00 0.00 40 1010.8
20260903225222 76 210 2.0 6.0 0.00 0.00 0.00 38 1010.9
20260903225015 77 210 1.0 6.0 0.00 0.00 0.00 38 1011.0
20260903224813 77 211 1.0 6.0 0.00 0.00 0.00 38 1010.9
20260903224604 77 161 1.0 6.0 0.00 0.00 0.00 37 1011.0
20260903224352 77 355 0.0 6.0 0.00 0.00 0.00 39 1011.0
20260903224143 77 323 0.0 6.0 0.00 0.00 0.00 39 1011.0
20260903223936 76 304 0.0 6.0 0.00 0.00 0.00 38 1011.0
20260903223726 76 284 0.0 5.0 0.00 0.00 0.00 39 1011.0
20260903223331 76 95 1.0 6.0 0.00 0.00 0.00 38 1011.1
20260903223119 77 207 1.0 6.0 0.00 0.00 0.00 38 1011.1
20260903222917 77 196 1.0 6.0 0.00 0.00 0.00 38 1011.2
20260903222709 77 219 1.0 6.0 0.00 0.00 0.00 40 1011.2
20260903222318 77 252 1.0 6.0 0.00 0.00 0.00 39 1011.2
20260903222117 77 219 1.0 6.0 0.00 0.00 0.00 38 1011.2
20260903221904 77 242 1.0 6.0 0.00 0.00 0.00 40 1011.3
20260903221656 77 244 1.0 6.0 0.00 0.00 0.00 38 1011.3
20260903221454 77 16 1.0 5.0 0.00 0.00 0.00 40 1011.4
20260903221251 76 288 1.0 6.0 0.00 0.00 0.00 40 1011.4
20260903221039 76 329 1.0 6.0 0.00 0.00 0.00 39 1011.4
20260903220647 76 261 1.0 6.0 0.00 0.00 0.00 40 1011.4
20260903220440 76 261 1.0 7.0 0.00 0.00 0.00 39 1011.6
20260903215859 76 228 1.0 7.0 0.00 0.00 0.00 39 1011.6
20260903215651 76 277 0.0 7.0 0.00 0.00 0.00 39 1011.6
20260903215439 76 211 0.0 7.0 0.00 0.00 0.00 38 1011.5
20260903215233 77 211 1.0 7.0 0.00 0.00 0.00 38 1011.7
20260903215020 77 266 1.0 7.0 0.00 0.00 0.00 39 1011.7
20260903214633 77 249 1.0 7.0 0.00 0.00 0.00 39 1011.7
20260903214422 76 213 0.0 5.0 0.00 0.00 0.00 40 1011.7
20260903214211 76 247 0.0 4.0 0.00 0.00 0.00 40 1011.6
20260903214003 76 15 0.0 4.0 0.00 0.00 0.00 40 1011.7
20260903213607 76 227 1.0 3.0 0.00 0.00 0.00 39 1011.7
20260903213401 76 227 0.0 3.0 0.00 0.00 0.00 40 1011.7
20260903213010 76 207 1.0 5.0 0.00 0.00 0.00 39 1011.7
20260903212759 76 207 1.0 3.0 0.00 0.00 0.00 40 1011.7
20260903212557 76 198 1.0 2.0 0.00 0.00 0.00 39 1011.8
20260903212354 76 198 1.0 5.0 0.00 0.00 0.00 38 1011.8
20260903212149 76 162 1.0 5.0 0.00 0.00 0.00 39 1011.7
20260903211937 76 213 0.0 5.0 0.00 0.00 0.00 39 1011.7
20260903211734 76 205 1.0 5.0 0.00 0.00 0.00 40 1011.7
20260903211532 76 172 1.0 5.0 0.00 0.00 0.00 40 1011.8
20260903211323 76 231 1.0 4.0 0.00 0.00 0.00 39 1011.7
20260903211119 76 242 1.0 4.0 0.00 0.00 0.00 40 1011.7
20260903210911 75 304 1.0 4.0 0.00 0.00 0.00 41 1011.7
20260903210700 74 345 1.0 4.0 0.00 0.00 0.00 42 1011.8
20260903210449 74 232 0.0 0.0 0.00 0.00 0.00 44 1011.8
20260903210244 74 231 1.0 5.0 0.00 0.00 0.00 44 1011.8
20260903210033 73 49 1.0 5.0 0.00 0.00 0.00 44 1011.8
20260903205824 73 84 1.0 5.0 0.00 0.00 0.00 42 1011.9
20260903205613 73 178 1.0 5.0 0.00 0.00 0.00 42 1012.0
20260903205402 74 157 1.0 5.0 0.00 0.00 0.00 41 1012.0
20260903205014 73 213 1.0 5.0 0.00 0.00 0.00 41 1011.9
20260903204806 73 202 1.0 6.0 0.00 0.00 0.00 43 1012.0
20260903204602 74 204 1.0 6.0 0.00 0.00 0.00 45 1012.0
20260903204358 74 202 1.0 6.0 0.00 0.00 0.00 43 1012.0
20260903204147 74 180 1.0 6.0 0.00 0.00 0.00 42 1012.0